Weather in Okhotnoye

Russia / Kaliningrad Oblast     54°55′37″N   21°37′13″E
temp.,
°C
wind,
m/s
gust,
m/s
humid.,
%
clouds,
%
prec.,
mm/h
press.,
hPa
HPBL,
m
27 june, mon
mon2723:00+21se33850 0.0 102048
02:00+19se238899 0.0 102048
05:00+21se2577100 0.0 1020106
08:00+24se356634 0.0 1021381
11:00+28se455490 0.0 1021981
14:00+28se4552100 0.0 10201118
17:00+28se4657100 0.0 1019979
20:00+24ese487719 0.1 1019238
28 june, tue
tue2823:00+21se37815 0.0 1020128
02:00+19se388416 0.0 1019150
05:00+19se378873 0.0 1019138
08:00+24sse366928 0.0 1019359
11:00+28sse46550 0.0 10191070
14:00+30sse554956 0.0 10181919
17:00+24wsw238145 0.6 1018373
20:00+19wnw4898100 2.3 1019274
29 june, wed
wed2923:00+18wnw2599100 1.6 1020148
02:00+17wsw229895 1.8 102038
05:00+17w11985 0.1 101934
08:00+21nw118615 0.1 1019349
11:00+25wnw11655 0.0 1018852
14:00+27wnw2261100 0.0 10181051
17:00+26wnw326789 0.0 1017479
20:00+21n258566 0.1 1016119
30 june, thu
thu3023:00+19ne22956 1.2 101635
02:00+20ese239697 1.8 101647
05:00+20ese369655 0.0 1016126
08:00+23ese478431 0.0 1016289
11:00+28ese566147 0.0 1016871
14:00+30se675626 0.0 10161327
17:00+30se57585 0.0 10161308
20:00+26ese38815 0.0 1016282
1 july, fri
fri123:00+23ese411845 0.0 1016288
02:00+21ese411873 0.0 1017271
05:00+20ese410870 0.0 1017258
08:00+24se58715 0.0 1016451
11:00+28se67585 0.0 10171083
14:00+30se68485 0.0 10161383
17:00+30se58530 0.0 10161353
20:00+25ese511740 0.0 1015429